Flag for Germany Weather past 2 weeks in Bretten, Baden-Württemberg, Germany

Now
39 °F

Light rain. Passing clouds.


Feels Like: 39 °F
Forecast: 30 / 44 °F
Wind: No wind

Location: Baden Wurttemberg - Neuostheim

Current Time: Feb 27, 2015 at 7:39:42 AM

Latest Report: Feb 27, 2015 at 6:50 AM


Visibility: N/A

Pressure: 29.80 "Hg

Humidity: 87%

Dew point: 36 °F

Location of BrettenLocation

Historic Weather in Bretten — Graph

°F

Bretten temperature yesterday

Maximum temperature yesterday: 52 °F (at 2:50 PM)
Minimum temperature yesterday: 37 °F (at 5:50 AM)
Average temperature yesterday: 45 °F

Past Weeks' High & Low Weather Summary

 TemperatureHumidityPressure
High55 °F (Feb 20, 3:20 PM)100% (Feb 14, 8:20 AM)30.74 "Hg (Feb 14, 8:20 AM)
Low28 °F (Feb 15, 7:50 AM)44% (Feb 20, 3:20 PM)29.47 "Hg (Feb 23, 2:20 PM)
Average39 °F77%30.06 "Hg
* Reported Feb 12 6:20 AM — Feb 27 6:20 AM, Bretten, Weather by CustomWeather, © 2015

Note: Actual official high and low records may vary slightly from our data, if they occured in-between our weather recording intervals... More about our weather records

Advertising

Bretten weather history for previous 24 hours

 ConditionsComfort  
Time TempWeatherWind HumidityBarometerVisibility
6:20 AM
Fri, Feb 27
39 °FLight rain. Passing clouds.2 mph81%29.80 "HgN/A
5:50 AM41 °FLight rain. Passing clouds.3 mph70%29.80 "HgN/A
9:20 PM
Thu, Feb 26
46 °FClear.7 mph46%29.95 "Hg10 mi
8:50 PM46 °FClear.7 mph46%29.95 "Hg10 mi
8:20 PM46 °FPassing clouds.5 mph53%29.95 "HgN/A
7:50 PM46 °FClear.5 mph57%29.98 "Hg10 mi
7:20 PM46 °FClear.5 mph57%29.98 "Hg10 mi
6:50 PM48 °FClear.2 mph54%29.98 "Hg10 mi
6:20 PM50 °FClear.3 mph50%29.98 "Hg10 mi
5:50 PM50 °FSunny.2 mph47%29.98 "Hg10 mi
5:20 PM50 °FSunny.3 mph47%30.01 "Hg10 mi
4:50 PM50 °FSunny.3 mph47%30.01 "Hg10 mi
4:20 PM52 °FPassing clouds.6 mph44%30.01 "HgN/A
3:50 PM52 °FPassing clouds.6 mph44%30.04 "HgN/A
3:20 PM52 °FPassing clouds.7 mph44%30.04 "HgN/A
2:50 PM52 °FPassing clouds.6 mph47%30.07 "HgN/A
2:20 PM50 °FPassing clouds.7 mph47%30.07 "HgN/A
1:50 PM50 °FPassing clouds.6 mph47%30.09 "HgN/A
1:20 PM48 °FPassing clouds.6 mph54%30.09 "HgN/A
12:50 PM48 °FPassing clouds.6 mph50%30.12 "HgN/A
12:20 PM46 °FPassing clouds.6 mph57%30.12 "HgN/A
11:50 AM45 °FScattered clouds.7 mph61%30.12 "HgN/A
11:20 AM43 °FMostly cloudy.7 mph66%30.15 "HgN/A
10:50 AM41 °FMostly cloudy.7 mph70%30.15 "HgN/A
10:20 AM41 °FMostly cloudy.7 mph70%30.15 "HgN/A
9:50 AM41 °FOvercast.7 mph70%30.15 "HgN/A
9:20 AM39 °FMostly cloudy.6 mph75%30.15 "HgN/A
8:50 AM39 °FOvercast.3 mph75%30.18 "HgN/A
8:20 AM39 °FOvercast.5 mph75%30.15 "HgN/A
7:50 AM39 °FOvercast.6 mph75%30.15 "HgN/A
Weather by CustomWeather, © 2015

See weather overviewHow to use our weather pages